Entrance, British Columbia

1:27 PM PST on November 23, 2017 (GMT -0800)
Entrance

Weather History for CWEL - August, 2013

Change the Weather History Date:

Friday, August 30, 2013

  Actual Average Record
Temperature  
Mean Temperature 62 °F -  
Max Temperature 65 °F - - ()
Min Temperature 60 °F - - ()
Degree Days  
Heating Degree Days 2    
Growing Degree Days 12 (Base 50)    
Moisture  
Dew Point 57 °F    
Average Humidity 84    
Maximum Humidity 88    
Minimum Humidity 80    
Precipitation  
Precipitation 0.08 in - - ()
Sea Level Pressure  
Sea Level Pressure 30.08 in    
Wind  
Wind Speed 9 mph ()    
Max Wind Speed 20 mph    
Max Gust Speed -    
T = Trace of Precipitation, MM = Missing Value Source: Averaged Metar Reports

Daily Weather History Graph

Daily Weather History Graph

Search for Another Location

Airport or City:

Trip Planner

Search our weather history database for the weather conditions in past years. The results will help you decide how hot, cold, wet, or windy it might be!

Date:

Astronomy

Aug. 30, 2013 Rise Set
Actual Time 6:29 AM PDT 8:01 PM PDT
Civil Twilight 5:55 AM PDT 8:34 PM PDT
Nautical Twilight 5:15 AM PDT 9:14 PM PDT
Astronomical Twilight 4:30 AM PDT 9:58 PM PDT
Moon 12:55 AM PDT (8/30) 4:36 PM PDT (8/30)
Length of Visible Light 14h 38m
Length of Day
13h 32m
Waning Crescent, 28% of the Moon is Illuminated
Aug 30
Waning Crescent
Sep 5
New
Sep 12
First Quarter
Sep 19
Full
Sep 26
Last Quarter

Hourly Weather History & Observations

Time (PDT) Temp. Dew Point Humidity Pressure Visibility Wind Dir Wind Speed Gust Speed Precip Events Conditions
12:00 AM 63.9 °F 59.5 °F 86% 29.91 in - SSW 11.5 mph - 0.08 in   Unknown
1:00 AM 60.6 °F 57.0 °F 88% 29.95 in - South 8.1 mph - N/A   Unknown
2:00 AM 61.9 °F 56.3 °F 82% 29.97 in - South 9.2 mph - N/A   Unknown
3:00 AM 60.6 °F 55.0 °F 82% 29.99 in - South 4.6 mph - 0.01 in   Unknown
4:00 AM 61.2 °F 55.0 °F 80% 29.99 in - SE 3.5 mph - N/A   Unknown
5:00 AM 60 °F 56 °F 81% 30.01 in - SSE 9.2 mph - -  
5:00 AM 60.3 °F 55.6 °F 85% 30.01 in - SSE 9.2 mph - N/A   Unknown
6:00 AM 60.4 °F 55.6 °F 84% 30.01 in - SE 12.7 mph - N/A   Unknown
7:00 AM 60.6 °F 55.9 °F 85% 30.04 in - SE 19.6 mph - N/A   Unknown
8:00 AM 60.6 °F 55.9 °F 85% 30.06 in - SE 17.3 mph - N/A   Unknown
9:00 AM 61.2 °F 56.7 °F 85% 30.07 in - SE 18.4 mph - N/A   Unknown
10:00 AM 60.8 °F 57.4 °F 88% 30.10 in - SE 17.3 mph - N/A   Unknown
11:00 AM 61 °F 57 °F 83% 30.12 in - ESE 16.1 mph - -  
11:00 AM 60.8 °F 57.2 °F 88% 30.12 in - ESE 16.1 mph - N/A   Unknown
12:00 PM 61.2 °F 57.2 °F 87% 30.12 in - ESE 13.8 mph - N/A   Unknown
1:00 PM 62.1 °F 57.0 °F 84% 30.13 in - ESE 12.7 mph - N/A   Unknown
2:00 PM 62.2 °F 56.7 °F 82% 30.14 in - ESE 13.8 mph - N/A   Unknown
3:00 PM 61.9 °F 57.7 °F 86% 30.15 in - ESE 11.5 mph - N/A   Unknown
4:00 PM 65.1 °F 58.8 °F 80% 30.14 in - East 9.2 mph - N/A   Unknown
5:00 PM 63 °F 58 °F 80% 30.13 in - East 11.5 mph - -  
5:00 PM 63.3 °F 58.3 °F 84% 30.13 in - East 11.5 mph - N/A   Unknown
6:00 PM 63.9 °F 58.1 °F 81% 30.13 in - SE 8.1 mph - N/A   Unknown
7:00 PM 62.1 °F 58.1 °F 87% 30.12 in - South 5.8 mph - N/A   Unknown
8:00 PM 63.5 °F 57.4 °F 80% 30.12 in - South 5.8 mph - N/A   Unknown
9:00 PM 63.0 °F 57.2 °F 81% 30.13 in - West 3.5 mph - N/A   Unknown
10:00 PM 61.0 °F 55.8 °F 83% 30.12 in - WNW 3.5 mph - N/A   Unknown
11:00 PM 60 °F 56 °F 81% 30.12 in - WNW 5.8 mph - -  
11:00 PM 60.1 °F 55.6 °F 85% 30.12 in - WNW 5.8 mph - N/A   Unknown